www.pogodaiklimat.ru

Погода и климат >> Архив погоды >> Россия >> Якутия >> Намцы


ПОГОДА в Намцах

  • Прогноз погоды в Намцах
  • Монитор погоды в Намцах
  • Климат города

АРХИВ ПОГОДЫ в Намцах

Время (UTC), дата Ветер
(напр.,м/с)
 
Видим.   Явления Облачность Т
(С)
Тd
(С)
f
(%)
Тe
(С)
Тes
(С)
Комфортность P
(гПа)
Po
(гПа)
Тmin
(С)
Tmax
(С)
R
(мм)
R24
(мм)
S
(см)
06 16.01 С 1 500 м туман {снег} 1/0
[Cc]
-39.8 -42.1 79 -45 -45 опасность
обморожения
1016.9 1003.6
09 16.01 С 1 500 м туман ясно -40.0 -42.1 80 -45 -45 опасность
обморожения
1017.4 1004.0
12 16.01 штиль 0 500 м слабый снег {туман} туман 4/0
[As trans]
-41.0 -43.1 80 -41 -41 опасность
обморожения
1016.5 1003.1 -43.7 0.4
15 16.01 штиль 0 200 м туман ясно -42.1 -44.8 75 -42 -42 опасность
обморожения
1017.9 1004.4
18 16.01 штиль 0 200 м туман ясно -42.2 -44.8 76 -42 -42 опасность
обморожения
1018.6 1005.1
21 16.01 штиль 0 200 м туман 10/10 30 м
[St]
-39.0 -41.1 80 -39 -39 опасность
обморожения
1019.1 1005.8
00 17.01 штиль 0 20 км снежные зёрна {туман} 10/10 360 м
[St]
-36.6 -38.7 81 -37 -37 опасность
обморожения
1019.8 1006.6 -42.5 0.0 25
03 17.01 штиль 0 20 км снежные зёрна 8/4 100 м
[St Ac trans Cc]
-36.5 -38.7 80 -37 -36 опасность
обморожения
1019.9 1006.7
06 17.01 штиль 0 20 км снежные зёрна 10/4 100 м
[St Ac As]
-36.0 -38.4 78 -36 -36 опасность
обморожения
1019.8 1006.8
09 17.01 штиль 0 20 км снежные зёрна 10/4 100 м
[St Ac As]
-37.0 -39.1 81 -37 -37 опасность
обморожения
1020.9 1007.7
12 17.01 штиль 0 2000 м дымка {снег} 3/0
[Ac As]
-39.6 -41.6 81 -40 -40 опасность
обморожения
1021.2 1007.9 -36.0 0.2
15 17.01 штиль 0 500 м слабый снег туман 10/0
[As trans]
-41.8 -43.7 82 -42 -42 опасность
обморожения
1021.2 1007.8
18 17.01 штиль 0 200 м слабый снег {туман} туман 10/0
[As trans]
-41.1 -43.1 81 -41 -41 опасность
обморожения
1021.1 1007.7
21 17.01 штиль 0 500 м снежные зёрна {туман} туман 10/10 30 м
[St]
-40.5 -42.6 80 -41 -41 опасность
обморожения
1021.3 1007.9
00 18.01 СЗ 1 500 м туман {снег} 3/0
[Ci fib]
-41.2 -43.1 82 -47 -47 опасность
обморожения
1021.7 1008.3 -42.4 0.0 24
03 18.01 С 1 500 м туман 3/0
[Cc]
-41.3 -43.1 83 -47 -46 опасность
обморожения
1021.6 1008.2 -42.6
06 18.01 СЗ 1 500 м туман 5/0
[Cc]
-40.9 -43.1 79 -46 -46 опасность
обморожения
1022.0 1008.6
09 18.01 штиль 0 500 м туман 3/0
[Cc]
-42.8 -45.5 75 -43 -43 опасность
обморожения
1023.1 1009.5
12 18.01 штиль 0 200 м туман 3/0
[Cc]
-45.2 -47.6 77 -45 -45 опасность
обморожения
1024.3 1010.6 -40.9
15 18.01 штиль 0 200 м туман ясно -46.3 -48.5 78 -46 -46 опасность
обморожения
1025.0 1011.2
18 18.01 штиль 0 200 м туман ясно -46.0 -48.5 76 -46 -46 опасность
обморожения
1026.1 1012.3
21 18.01 штиль 0 200 м туман ясно -46.7 -49.4 74 -47 -47 опасность
обморожения
1027.1 1013.2
00 19.01 штиль 0 200 м туман ясно -46.8 -49.4 75 -47 -47 опасность
обморожения
1028.3 1014.4 -46.8 24
03 19.01 штиль 0 50 м туман ясно -45.0 -47.6 75 -45 -45 опасность
обморожения
1029.0 1015.2
06 19.01 штиль 0 50 м туман ясно -43.5 -45.6 80 -44 -44 опасность
обморожения
1029.5 1015.9
09 19.01 штиль 0 50 м туман ясно -45.2 -47.6 77 -45 -45 опасность
обморожения
1031.1 1017.3
12 19.01 штиль 0 200 м туман ясно -41.6 -43.7 80 -42 -42 опасность
обморожения
1032.2 1018.6 -41.6
15 19.01 З 1 4000 м в посл. час туман ясно -42.0 -44.3 78 -47 -47 опасность
обморожения
1033.2 1019.6
18 19.01 З 2 4000 м дымка {туман} ясно -42.4 -44.3 81 -52 -52 опасность
обморожения
1034.1 1020.4
21 19.01 ЮЗ 1 4000 м туман на расстоянии ясно -43.3 -45.6 78 -49 -49 опасность
обморожения
1034.6 1020.9
00 20.01 штиль 0 4000 м туман на расстоянии ясно -43.6 -46.1 76 -44 -44 опасность
обморожения
1035.5 1021.8 -43.8 24
03 20.01 ЮЗ 1 4000 м дымка ясно -41.9 -44.8 73 -47 -47 опасность
обморожения
1035.7 1022.1
06 20.01 штиль 0 50 км ясно -40.6 -43.2 76 -41 -41 опасность
обморожения
1036.2 1022.6
09 20.01 штиль 0 500 м туман ясно -42.2 -44.3 80 -42 -42 опасность
обморожения
1036.6 1023.0
12 20.01 штиль 0 200 м туман ясно -44.8 -47.6 73 -45 -45 опасность
обморожения
1037.3 1023.5 -40.6
15 20.01 штиль 0 200 м туман ясно -45.6 -48.5 72 -46 -46 опасность
обморожения
1036.8 1022.9
18 20.01 штиль 0 200 м туман ясно -46.1 -48.5 76 -46 -46 опасность
обморожения
1036.8 1022.9
21 20.01 штиль 0 200 м туман ясно -49.0 -51.6 74 -49 -49 опасность
обморожения
1036.5 1022.4
00 21.01 штиль 0 50 м туман ясно -50.6 -53.0 75 -51 -51 опасность
обморожения
1036.5 1022.3 -50.7 24
03 21.01 штиль 0 200 м туман ясно -48.4 -50.5 79 -48 -48 опасность
обморожения
1035.4 1021.3
06 21.01 штиль 0 200 м туман ясно -47.5 -50.5 71 -48 -48 опасность
обморожения
1033.9 1020.0
09 21.01 штиль 0 200 м туман ясно -49.3 -51.6 77 -49 -49 опасность
обморожения
1032.5 1018.4
12 21.01 штиль 0 200 м туман ясно -47.3 -49.4 79 -47 -47 опасность
обморожения
1029.1 1015.3 -45.6
15 21.01 СЗ 2 20 км {туман} ясно -40.4 -42.6 79 -50 -50 опасность
обморожения
1025.7 1012.3
18 21.01 З 4 50 км {туман} ясно -39.2 -41.1 82 -53 -53 опасность
обморожения
1024.3 1011.0
21 21.01 СЗ 3 50 км 10/0
[Ci]
-38.0 -40.9 74 -49 -49 опасность
обморожения
1022.1 1008.9
00 22.01 З 2 50 км 10/0
[As trans]
-37.8 -40.5 76 -47 -47 опасность
обморожения
1021.6 1008.4 -47.3 24
03 22.01 СЗ 1 20 км слабый снег 10/0
[Ac As]
-37.1 -40.1 73 -42 -42 опасность
обморожения
1020.0 1006.8
06 22.01 СЗ 2 10 км слабый снег 10/0
[As op]
-35.9 -38.6 76 -44 -44 опасность
обморожения
1019.0 1006.0
09 22.01 СЗ 2 10 км слабый снег 10/0
[As op]
-35.9 -38.6 76 -44 -44 опасность
обморожения
1019.1 1006.1
12 22.01 штиль 0 20 км слабый снег 10/0
[As trans]
-35.6 -38.3 76 -36 -36 опасность
обморожения
1020.2 1007.2 -35.6 1
15 22.01 штиль 0 10 км слабый снег 10/0
[As op]
-35.5 -38.3 75 -36 -36 опасность
обморожения
1021.2 1008.1
18 22.01 штиль 0 20 км слабый снег 10/0
[As trans]
-36.0 -38.4 78 -36 -36 опасность
обморожения
1023.1 1010.0
21 22.01 штиль 0 20 км слабый снег 10/0
[As trans]
-36.4 -38.7 79 -36 -36 опасность
обморожения
1024.7 1011.5
00 23.01 штиль 0 50 км дымка {снег} ясно -37.9 -40.3 78 -38 -38 опасность
обморожения
1026.3 1013.0 -37.5 0.8 26

 

Местоположение метеостанции Намцы (Якутия, Россия): широта 62.72 долгота 129.60 высота над уровнем моря 90 м.

В архиве по умолчанию представлена погода в Намцах за последнюю неделю. Архивные данные за месяц целиком и за предыдущие месяцы, начиная с января 2011 года, Вы можете получить, выбрав интересующий диапазон дат из раскрывающегося списка и нажав кнопку "Ввод!".

Внимание! Время в таблицах - всемирное. Для получения местного времени необходимо прибавить поправку, которая в Намцах равна 9 ч.

Смотрите также архив погоды в соседних городах и на ближайших метеорологических станциях:

Погода в Якутске (Якутия, Россия) (80 км)
Погода в Батамае (Якутия, Россия) (90 км)
Погода в Верхоянском Перевозе (Якутия, Россия) (138 км)
Погода в Покровске (Якутия, Россия) (140 км)
Погода в Бердигестяхе (Якутия, Россия) (143 км)
Погода в Сеген-Кюели (Якутия, Россия) (147 км)
Погода в Чурапче (Якутия, Россия) (173 км)
Погода в Сангаре (Якутия, Россия) (175 км)
Погода в Ытык-Кюёле (Якутия, Россия) (204 км)
Погода в Сого-Хае (Якутия, Россия) (235 км)

Пояснения к столбцам:

Ветер - указаны скорость ветра в м/с - средняя за 10 мин, порывы в срок и между сроками (в фигурных скобках) и направление, откуда дует ветер: С - северный, СВ - северо-восточный, В - восточный, ЮВ - юго-восточный, Ю - южный, ЮЗ - юго-западный, З - западный, СЗ - северо-западный.
Видимость - горизонтальная дальность видимости в метрах или километрах. При видимости от 1 до 10 км при отсутствии осадков обычно наблюдается дымка, при ухудшении видимости до 1 км и менее - туман. В сухую погоду видимость может ухудшаться дымом, пылью или мглою.
Явления - указаны атмосферные явления, наблюдавшиеся в срок или в последний час перед сроком; фигурными скобками обозначены явления, наблюдавшиеся между сроками (за 1-3 часа до срока); квадратными скобками обозначены град или гололедные отложения с указанием их диаметра в мм.
Облачность - указаны через наклонную черту общая и нижняя облачность в баллах и высота нижней границы облаков в метрах; квадратными скобками обозначены формы облаков: Ci - перистые, Cs - перисто-слоистые, Cc - перисто-кучевые, Ac - высококучевые, As - высокослоистые, Sc - слоисто-кучевые, Ns - слоисто-дождевые, Cu - кучевые, Cb - кучево-дождевые. Подробнее классификацию облаков см. в Атласе облаков (PDF).
T - Температура воздуха - температура, измеренная на высоте 2 м над землей.
Td - Температура точки росы - температура, при понижении до которой содержащийся в воздухе водяной пар достигнет насыщения.
f - Относительная влажность воздуха - влажноcть воздуха, измеренная на высоте 2 м над землей.
Te - Эффективная температура - температура, которую ощущает одетый по сезону человек в тени. Характеристика душности погоды. При расчете учитывается влияние влажности воздуха и скорости ветра на теплоощущения человека.
Tes - Эффективная температура на солнце - температура, которую ощущает человек, с поправкой на солнечный нагрев. Характеристика знойности погоды. Зависит от высоты солнца над горизонтом, облачности и скорости ветра. Ночью, в пасмурную погоду, а также при ветре 12 м/с и более поправка равна нулю.
P - Атмосферное давление - приведенное к уровню моря атмосферное давление.
Po - Атмосферное давление - измеренное на уровне метеостанции атмосферное давление.
Tmin - Минимальная температура - минимум температуры воздуха на высоте 2 м над землей.
Tmax - Максимальная температура - максимум температуры воздуха на высоте 2 м над землей.
R - Количество осадков - Количество выпавших осадков за период времени, мм. При наведении курсора мыши на число - период времени, за который выпало указанное количество осадков.
R24 - Количество осадков - Количество выпавших осадков за 24 часа, мм.
S - Снежный покров - Высота снежного покрова, см. При наведении курсора мыши на число - состояние снежного покрова и степень покрытия местности в баллах.